Hourly Weather Barlomino

Today, 23 September, Wednesday

Time Temperature Precipitation Wind Pressure Humidity
00:00 +17°C° 0 mm 4 mps 745 mmHg 66%
01:00 +17°C° 0 mm 3 mps 745 mmHg 68%
02:00 +16°C° 0 mm 3 mps 745 mmHg 71%
03:00 +16°C° 0 mm 3 mps 745 mmHg 74%
04:00 +16°C° 0 mm 3 mps 744 mmHg 77%
05:00 +15°C° 0 mm 4 mps 744 mmHg 76%
06:00 +15°C° 0 mm 4 mps 744 mmHg 75%
07:00 +17°C° 0 mm 4 mps 744 mmHg 75%
08:00 +19°C° 0 mm 4 mps 744 mmHg 68%
09:00 +21°C° 0 mm 4 mps 744 mmHg 62%
10:00 +23°C° 0 mm 4 mps 744 mmHg 55%
11:00 +25°C° 0 mm 4 mps 744 mmHg 52%
12:00 +26°C° 0 mm 4 mps 744 mmHg 49%
13:00 +26°C° 0 mm 4 mps 744 mmHg 46%
14:00 +26°C° 0 mm 3 mps 744 mmHg 47%
15:00 +26°C° 0 mm 3 mps 743 mmHg 48%
16:00 +26°C° 0 mm 3 mps 743 mmHg 49%
17:00 +24°C° 0 mm 3 mps 743 mmHg 54%
18:00 +21°C° 0 mm 3 mps 743 mmHg 58%
19:00 +20°C° 0 mm 3 mps 743 mmHg 63%
20:00 +19°C° 0 mm 3 mps 743 mmHg 64%
21:00 +19°C° 0 mm 3 mps 743 mmHg 66%
22:00 +18°C° 0 mm 3 mps 743 mmHg 68%
23:00 +18°C° 0 mm 3 mps 743 mmHg 70%

Tomorrow, 24 September, Thursday

Time Temperature Precipitation Wind Pressure Humidity
00:00 +18°C° 0 mm 3 mps 743 mmHg 72%
01:00 +17°C° 0 mm 3 mps 743 mmHg 75%
02:00 +17°C° 0.2 mm 3 mps 742 mmHg 78%
03:00 +17°C° 0.2 mm 3 mps 742 mmHg 82%
04:00 +16°C° 0.2 mm 3 mps 742 mmHg 86%
05:00 +17°C° 0.2 mm 3 mps 742 mmHg 86%
06:00 +17°C° 0.2 mm 3 mps 742 mmHg 86%
07:00 +17°C° 0.2 mm 4 mps 742 mmHg 87%
08:00 +19°C° 0.1 mm 4 mps 742 mmHg 80%
09:00 +20°C° 0.1 mm 4 mps 742 mmHg 73%
10:00 +22°C° 0.1 mm 5 mps 742 mmHg 67%
11:00 +23°C° 0 mm 5 mps 742 mmHg 60%
12:00 +23°C° 0 mm 5 mps 743 mmHg 54%
13:00 +25°C° 0 mm 5 mps 743 mmHg 48%
14:00 +23°C° 0 mm 4 mps 743 mmHg 52%
15:00 +24°C° 0 mm 3 mps 743 mmHg 56%
16:00 +22°C° 0 mm 3 mps 743 mmHg 60%
17:00 +20°C° 0.1 mm 2 mps 743 mmHg 68%
18:00 +20°C° 0.1 mm 1 mps 743 mmHg 76%
19:00 +18°C° 0.1 mm 1 mps 743 mmHg 84%
20:00 +18°C° 0.1 mm 1 mps 743 mmHg 85%
21:00 +16°C° 0.1 mm 2 mps 743 mmHg 87%
22:00 +16°C° 0.1 mm 2 mps 743 mmHg 89%
23:00 +16°C° 0 mm 2 mps 743 mmHg 89%

Day after tomorrow, 25 September, Friday

Time Temperature Precipitation Wind Pressure Humidity
00:00 +16°C° 0 mm 2 mps 743 mmHg 89%
01:00 +15°C° 0 mm 2 mps 743 mmHg 89%
02:00 +15°C° 0 mm 2 mps 742 mmHg 89%
03:00 +15°C° 0 mm 2 mps 742 mmHg 89%
04:00 +15°C° 0 mm 2 mps 742 mmHg 89%
05:00 +15°C° 0 mm 2 mps 741 mmHg 88%
06:00 +15°C° 0 mm 2 mps 741 mmHg 86%
07:00 +16°C° 0 mm 3 mps 740 mmHg 84%
08:00 +17°C° 0 mm 4 mps 740 mmHg 78%
09:00 +19°C° 0 mm 4 mps 739 mmHg 72%
10:00 +20°C° 0 mm 5 mps 739 mmHg 65%
11:00 +21°C° 0 mm 5 mps 738 mmHg 62%
12:00 +22°C° 0 mm 6 mps 738 mmHg 59%
13:00 +23°C° 0 mm 6 mps 737 mmHg 56%
14:00 +23°C° 0.1 mm 6 mps 736 mmHg 58%
15:00 +22°C° 0.1 mm 6 mps 736 mmHg 60%
16:00 +22°C° 0.1 mm 6 mps 735 mmHg 62%
17:00 +21°C° 0.6 mm 6 mps 735 mmHg 69%
18:00 +19°C° 0.6 mm 5 mps 735 mmHg 76%
19:00 +17°C° 0.6 mm 5 mps 735 mmHg 83%
20:00 +16°C° 0.1 mm 5 mps 735 mmHg 85%
21:00 +16°C° 0.1 mm 5 mps 735 mmHg 87%
22:00 +15°C° 0.1 mm 4 mps 736 mmHg 89%
23:00 +15°C° 0.1 mm 4 mps 736 mmHg 88%

26 September, Saturday

Time Temperature Precipitation Wind Pressure Humidity
00:00 +14°C° 0.1 mm 4 mps 736 mmHg 87%
01:00 +14°C° 0.1 mm 4 mps 737 mmHg 86%
02:00 +13°C° 0 mm 4 mps 737 mmHg 86%
03:00 +13°C° 0 mm 3 mps 737 mmHg 86%
04:00 +13°C° 0 mm 2 mps 737 mmHg 86%
05:00 +13°C° 0 mm 2 mps 738 mmHg 85%
06:00 +12°C° 0 mm 3 mps 738 mmHg 85%
07:00 +12°C° 0 mm 3 mps 738 mmHg 84%
08:00 +13°C° 0 mm 3 mps 738 mmHg 79%
09:00 +14°C° 0 mm 3 mps 738 mmHg 74%
10:00 +15°C° 0 mm 4 mps 739 mmHg 68%
11:00 +15°C° 0.1 mm 4 mps 739 mmHg 70%
12:00 +15°C° 0.1 mm 4 mps 739 mmHg 72%
13:00 +15°C° 0.1 mm 4 mps 738 mmHg 75%
14:00 +14°C° 1.2 mm 5 mps 738 mmHg 81%
15:00 +13°C° 1.2 mm 5 mps 738 mmHg 87%
16:00 +13°C° 1.2 mm 6 mps 738 mmHg 93%
17:00 +13°C° 1.3 mm 6 mps 738 mmHg 94%
18:00 +14°C° 1.3 mm 5 mps 738 mmHg 95%
19:00 +14°C° 1.3 mm 5 mps 738 mmHg 97%
20:00 +14°C° 1.1 mm 4 mps 738 mmHg 97%
21:00 +16°C° 1.1 mm 3 mps 738 mmHg 97%
22:00 +16°C° 1.1 mm 3 mps 738 mmHg 97%
23:00 +16°C° 0.6 mm 2 mps 737 mmHg 97%

27 September, Sunday

Time Temperature Precipitation Wind Pressure Humidity
00:00 +16°C° 0.6 mm 2 mps 737 mmHg 97%
01:00 +16°C° 0.6 mm 2 mps 737 mmHg 97%
02:00 +16°C° 0.1 mm 2 mps 737 mmHg 95%
03:00 +16°C° 0.1 mm 2 mps 736 mmHg 93%
04:00 +16°C° 0.1 mm 3 mps 736 mmHg 90%
05:00 +15°C° 0 mm 4 mps 736 mmHg 86%
06:00 +15°C° 0 mm 4 mps 736 mmHg 82%
07:00 +16°C° 0 mm 5 mps 736 mmHg 78%
08:00 +16°C° 0 mm 5 mps 737 mmHg 74%
09:00 +17°C° 0 mm 5 mps 737 mmHg 70%
10:00 +19°C° 0 mm 6 mps 737 mmHg 67%
11:00 +19°C° 0 mm 6 mps 737 mmHg 67%
12:00 +19°C° 0 mm 6 mps 737 mmHg 67%
13:00 +20°C° 0 mm 6 mps 737 mmHg 67%
14:00 +19°C° 0 mm 5 mps 737 mmHg 69%
15:00 +19°C° 0 mm 5 mps 737 mmHg 71%
16:00 +18°C° 0 mm 4 mps 737 mmHg 72%
17:00 +18°C° 0 mm 4 mps 738 mmHg 72%
18:00 +17°C° 0 mm 5 mps 738 mmHg 72%
19:00 +17°C° 0 mm 5 mps 738 mmHg 72%
20:00 +16°C° 0.2 mm 5 mps 738 mmHg 76%
21:00 +17°C° 0.2 mm 4 mps 738 mmHg 81%
22:00 +15°C° 0.2 mm 4 mps 738 mmHg 85%
23:00 +15°C° 0 mm 4 mps 738 mmHg 85%

28 September, Monday

Time Temperature Precipitation Wind Pressure Humidity
00:00 +15°C° 0 mm 4 mps 738 mmHg 85%
01:00 +15°C° 0 mm 4 mps 738 mmHg 84%
02:00 +15°C° 0 mm 5 mps 737 mmHg 83%
03:00 +15°C° 0 mm 5 mps 737 mmHg 83%
04:00 +15°C° 0 mm 5 mps 737 mmHg 82%
05:00 +15°C° 0 mm 5 mps 737 mmHg 82%
06:00 +14°C° 0 mm 5 mps 738 mmHg 82%
07:00 +14°C° 0 mm 5 mps 738 mmHg 83%
08:00 +14°C° 0 mm 5 mps 738 mmHg 77%
09:00 +14°C° 0 mm 5 mps 739 mmHg 71%
10:00 +14°C° 0 mm 5 mps 739 mmHg 66%
11:00 +14°C° 0 mm 5 mps 739 mmHg 66%
12:00 +14°C° 0 mm 6 mps 740 mmHg 66%
13:00 +13°C° 0 mm 6 mps 740 mmHg 65%
14:00 +13°C° 0 mm 5 mps 740 mmHg 65%
15:00 +13°C° 0 mm 5 mps 741 mmHg 65%
16:00 +12°C° 0 mm 5 mps 741 mmHg 64%
17:00 +12°C° 0 mm 5 mps 741 mmHg 65%
18:00 +12°C° 0 mm 4 mps 741 mmHg 66%
19:00 +11°C° 0 mm 4 mps 742 mmHg 67%
20:00 +11°C° 0 mm 4 mps 742 mmHg 70%
21:00 +10°C° 0 mm 4 mps 742 mmHg 72%
22:00 +10°C° 0 mm 4 mps 742 mmHg 75%
23:00 +10°C° 0 mm 4 mps 742 mmHg 77%
Show more